Terminal Aerodrome Forecast
Issued by NWS Buffalo, NY

Home | Current Version | Previous Version | Text Only | Print | Product List | Glossary On
Versions: 1 2 3 4 5 6 7 8 9 10 11 12 13 14 15 16 17 18 19 20 21 22 23 24 25
000
FTUS41 KBUF 292333
TAFART
TAF
KART 292333Z 3000/3024 26004KT P6SM BKN200
     FM300100 VRB03KT P6SM BKN120
     FM301000 VRB03KT P6SM BKN070
     FM301100 20004KT P6SM SCT060
     FM301600 22008KT P6SM SCT060=

USA.gov is the U.S. government's official web portal to all federal, state and local government web resources and services.